Lexington Weather

Lexington, Massachusetts, USA

56°F
10/22/2020 7:26pm 
  • Lexington Conditions: Mostly cloudy
  • Temperature: 55.8°F / 13.2°CColder 0.3°F than last hour.
  • Dew Point: 54.3°FDecreased 0.2°Fsince last hour.
  • Relative Humidity: 95%Increased 1.0% since last hour.
  • Wind: Wind from SSE SSE Calm, 10-min avg: 1 mph, gust: 5 mph
  • Barometer: 30.22 inRising 0.02  inHg/hr Rising Slowly
  • Visibility: 7 miles
  • Rain Today: 0.00 in
  •   

Regional Weather Roundup
for Boston / Norton, MA

        
000
ASUS41 KBOX 212204
RWRBOX

REGIONAL WEATHER ROUNDUP
NATIONAL WEATHER SERVICE BOSTON/NORTON MA
600 PM EDT WED OCT 21 2020

NOTE:  "FAIR" INDICATES FEW OR NO CLOUDS BELOW 12,000 FEET WITH NO 
SIGNIFICANT WEATHER AND/OR OBSTRUCTIONS TO VISIBILITY.

MAZALL-212300-
EASTERN MASSACHUSETTS
  
CITY           SKY/WX    TMP DP  RH WIND       PRES   REMARKS
BOSTON         MOCLDY    57  55  93 SE5       30.19F                  
BEVERLY        MOCLDY    60  58  92 SE5       30.18F                  
LAWRENCE       PTCLDY    64  60  87 CALM      30.20S                  
BEDFORD        PTCLDY    68  61  78 S3        30.17S                  
BLUE HILL        N/A     66  63  90 S15G21    30.19S                  
NORWOOD        CLEAR     69  63  81 S6        30.18S                  
MARSHFIELD     PTCLDY    70  68  94 S7        30.20R                  
PLYMOUTH       CLOUDY    67  64  90 SW9       30.22R                  
TAUNTON        MOCLDY    68  64  87 VRB3      30.21S                  
NEW BEDFORD    CLOUDY    66  65  96 SW9       30.22S FOG              
$$

MAZALL-212300-
CAPE COD AND THE ISLANDS
  
CITY           SKY/WX    TMP DP  RH WIND       PRES   REMARKS
FALMOUTH       CLOUDY    66  66 100 SW9       30.23S FOG              
HYANNIS        FOG       64  64 100 S6        30.22S VSB 1/4          
CHATHAM        FOG       63  62  97 SW5       30.25S VSB 3/4          
PROVINCETOWN   FOG       63  63 100 S12       30.23R VSB 1/2          
NANTUCKET      CLEAR     63  63 100 S7        30.25S                  
MARTHAS VNYRD  FOG       65  65 100 SW6       30.24S VSB<1/4          
$$
 
MAZALL-212300-
CENTRAL AND WESTERN MASSACHUSETTS
  
CITY           SKY/WX    TMP DP  RH WIND       PRES   REMARKS
WORCESTER      MOCLDY    68  59  73 SW17      30.21S                  
FITCHBURG      CLEAR     70  60  70 SW9       30.19S                  
ORANGE         CLEAR     68  60  75 S9G18     30.19S                  
SPRINGFIELD    MOCLDY    69  60  75 S7        30.18S                  
WESTFIELD      CLOUDY    68  62  81 S12       30.18F                  
NORTH ADAMS    CLEAR     69  58  67 W12G22    30.15F                  
PITTSFIELD     MOCLDY    65  59  81 S7        30.17F                  
$$
 
RIZALL-212300-
RHODE ISLAND
  
CITY           SKY/WX    TMP DP  RH WIND       PRES   REMARKS
PROVIDENCE     PTCLDY    67  64  90 S9        30.23R                  
NEWPORT        FOG       63  63 100 S5        30.24R VSB 1/4          
BLOCK ISLAND   LGT RAIN  63  63 100 SW12      30.25R VSB 1/2          
SMITHFIELD     PTCLDY    69  65  86 SW5         N/A                   
WESTERLY       FOG       64  62  93 VRB5      30.24R VSB 1/4          
$$
 
CTZALL-212300-
CONNECTICUT
  
CITY           SKY/WX    TMP DP  RH WIND       PRES   REMARKS
BRADLEY INTL   CLOUDY    70  61  73 S7        30.20R                  
HARTFORD       CLOUDY    70  62  76 S8        30.20S                  
BRIDGEPORT     CLOUDY    66  63  90 CALM      30.22S                  
DANBURY        CLOUDY    67  63  87 VRB5      30.23R                  
GROTON         FOG       64  64 100 S5        30.23S VSB 1/2          
NEW HAVEN      CLOUDY    68  64  87 CALM      30.22S                  
CHESTER        CLOUDY    66  66 100 S5        30.23F FOG              
MERIDEN        CLOUDY    67  62  84 S6        30.22R                  
WILLIMANTIC    CLOUDY    70  62  76 SW8       30.22R                  
OXFORD         CLOUDY    66  64  93 S6        30.23S                  
$$

MEZ002-015-021-024-NHZ003-005-008-011-012-014-VTZ005-008-212300-
NORTHERN NEW ENGLAND
  
CITY           SKY/WX    TMP DP  RH WIND       PRES   REMARKS
PORTLAND ME    CLOUDY    53  53 100 SE3       30.18F FOG              
BANGOR ME      DRZL/FOG  51  50  96 CALM      30.17F VSB 1/2          
CONCORD NH     CLEAR     61  58  90 S7        30.16F                  
MANCHESTER NH  PTCLDY    64  59  83 CALM      30.16F                  
NASHUA NH      MOCLDY    64  64 100 CALM      30.18S                  
PORTSMOUTH NH  CLOUDY    56  56  97 CALM      30.17F                  
JAFFREY NH     CLEAR     66  57  72 VRB7      30.19S                  
KEENE NH       PTCLDY    69  59  70 S9        30.16F                  
BURLINGTON VT  RAIN      66  58  75 S12       30.05R                  
MT. WASHINGTON LGT RAIN  46  46 100 W59G69      N/A  VSB 1/16         
$$

NYZ052-076-212300-
EASTERN NEW YORK
  
CITY           SKY/WX    TMP DP  RH WIND       PRES   REMARKS
ALBANY         MOCLDY    66  60  81 S12G20    30.13S                  
NEW YORK CITY  FOG       66  62  87 S7        30.21S VSB 1            
$$
 
ANZALL-212300-
MARINE OBSERVATIONS
  
STATION/POSITION TIME  TEMP    WIND        PRES    VSBY  WAVE
                       AIR SEA DIR/SP/G                  HT/PER
                 (UTC) (F)     (DEG/KT/KT) (MB)    (MI)  (FT/S)
BOSTON BUOY      2150   61 58  150/ 12/ 14 1021.1R         3/11
BUZZARDS BAY     2100          200/ 10/ 11 1024.5F
NANTUCKET SOUND  2150      62  210/  6/  6   N/A           1/ 9
MASS BAY-STELLWA 2104   58 57  170/  4/  4 1021.9F   5/16  3/11
ISLE OF SHOALS   2100   55      10/  3/  3 1022.1F
S OF BLOCK IS    2126      63                N/A           3/10
$$

......................KEY.........................
  SKY/WX - SKY CONDITION/PRESENT WEATHER
  TMP    - TEMPERATURE IN FAHRENHEIT
  DWPT   - DEWPOINT IN FAHRENHEIT
  RH     - RELATIVE HUMIDITY IN PERCENT
  WIND   - DIRECTION AND SPEED IN MPH
  PRES   - MEAN SEA LEVEL PRESSURE IN INCHES OF HG
  WCI    - WIND CHILL INDEX
  VSB    - VISIBILITY IN MILES
  HX     - HEAT INDEX
  TC     - TEMPERATURE IN CELSIUS
  VRB    - VARIABLE WIND DIRECTION
  N/A    - NOT AVAILABLE
  
      

Other recent Regional Weather Roundups

Thu Oct 22, 7:05pm

Thu Oct 22, 6:04pm

Thu Oct 22, 5:04pm

Thu Oct 22, 4:05pm

Thu Oct 22, 3:04pm

Thu Oct 22, 2:05pm

Thu Oct 22, 1:04pm

Thu Oct 22, 12:04pm

Thu Oct 22, 11:04am

Thu Oct 22, 10:05am

Thu Oct 22, 9:04am

Thu Oct 22, 8:05am

Thu Oct 22, 7:04am

Thu Oct 22, 6:04am

Thu Oct 22, 5:04am

Thu Oct 22, 4:04am

Thu Oct 22, 3:04am

Thu Oct 22, 2:04am

Thu Oct 22, 1:04am

Thu Oct 22, 12:04am

Wed Oct 21, 11:05pm

Wed Oct 21, 10:04pm

Wed Oct 21, 9:04pm

Wed Oct 21, 8:04pm

Wed Oct 21, 7:04pm

Wed Oct 21, 5:05pm

Wed Oct 21, 4:04pm

Wed Oct 21, 3:04pm

Wed Oct 21, 2:05pm

Wed Oct 21, 1:04pm

Wed Oct 21, 12:04pm

Wed Oct 21, 11:04am

Wed Oct 21, 10:04am

Wed Oct 21, 9:04am

Wed Oct 21, 8:04am

Wed Oct 21, 7:04am

Wed Oct 21, 6:04am

Wed Oct 21, 5:04am

Wed Oct 21, 4:04am

Wed Oct 21, 3:04am

Wed Oct 21, 2:04am

Wed Oct 21, 1:04am

Wed Oct 21, 12:04am

Tue Oct 20, 11:05pm

Tue Oct 20, 10:04pm

Tue Oct 20, 9:04pm

Tue Oct 20, 8:05pm

Tue Oct 20, 7:04pm

Tue Oct 20, 6:04pm

Tue Oct 20, 5:05pm

Tue Oct 20, 4:04pm

Tue Oct 20, 3:05pm

Tue Oct 20, 2:07pm

Tue Oct 20, 1:04pm

Tue Oct 20, 12:04pm

Tue Oct 20, 11:04am

Tue Oct 20, 10:05am

Tue Oct 20, 9:04am

Tue Oct 20, 8:04am

Tue Oct 20, 7:04am

Tue Oct 20, 6:04am

Tue Oct 20, 5:04am

Tue Oct 20, 4:04am

Tue Oct 20, 3:04am

Tue Oct 20, 2:04am

Tue Oct 20, 1:04am

Tue Oct 20, 12:04am

Mon Oct 19, 11:04pm

Mon Oct 19, 10:04pm

Mon Oct 19, 9:04pm

Mon Oct 19, 8:04pm

Mon Oct 19, 7:04pm

Mon Oct 19, 6:04pm

Mon Oct 19, 5:04pm

Mon Oct 19, 4:04pm

Mon Oct 19, 3:04pm

Mon Oct 19, 2:04pm

Mon Oct 19, 1:05pm

Mon Oct 19, 12:04pm

Mon Oct 19, 11:04am

Mon Oct 19, 10:04am

Mon Oct 19, 9:04am

Mon Oct 19, 8:04am

Mon Oct 19, 7:04am

Mon Oct 19, 6:04am

Mon Oct 19, 5:04am

Mon Oct 19, 4:04am

Mon Oct 19, 3:04am

Mon Oct 19, 2:04am

Mon Oct 19, 1:04am

Mon Oct 19, 12:05am

Sun Oct 18, 11:04pm

Sun Oct 18, 10:04pm

Sun Oct 18, 9:04pm

Sun Oct 18, 8:04pm

Sun Oct 18, 7:05pm

Sun Oct 18, 6:04pm

Sun Oct 18, 5:05pm

Sun Oct 18, 4:05pm

Sun Oct 18, 3:04pm

Sun Oct 18, 2:05pm

Sun Oct 18, 1:04pm

Sun Oct 18, 12:04pm

Sun Oct 18, 11:04am

Sun Oct 18, 10:04am

Sun Oct 18, 9:04am

Sun Oct 18, 8:04am

Sun Oct 18, 7:04am

Sun Oct 18, 6:04am

Sun Oct 18, 5:04am

Sun Oct 18, 4:04am

Sun Oct 18, 3:04am

Sun Oct 18, 2:04am

Sun Oct 18, 1:04am

Sun Oct 18, 12:04am

Sat Oct 17, 11:05pm

Sat Oct 17, 10:04pm

Sat Oct 17, 9:04pm

Sat Oct 17, 8:04pm

Sat Oct 17, 7:04pm

Sat Oct 17, 6:04pm

Sat Oct 17, 5:05pm

Sat Oct 17, 4:04pm

Sat Oct 17, 3:04pm

Sat Oct 17, 2:05pm

Sat Oct 17, 1:05pm

Sat Oct 17, 12:04pm

Sat Oct 17, 11:05am

Sat Oct 17, 10:04am

Sat Oct 17, 9:04am

Sat Oct 17, 8:04am

Sat Oct 17, 7:04am

Sat Oct 17, 6:04am

Sat Oct 17, 5:04am

Sat Oct 17, 4:04am

Sat Oct 17, 3:04am

Sat Oct 17, 2:04am

Sat Oct 17, 1:05am

Sat Oct 17, 12:04am

Fri Oct 16, 11:05pm

Fri Oct 16, 10:04pm

Fri Oct 16, 9:05pm

Fri Oct 16, 8:04pm

Fri Oct 16, 7:05pm

Fri Oct 16, 6:04pm

Fri Oct 16, 5:04pm

Fri Oct 16, 4:05pm

Fri Oct 16, 3:04pm

Fri Oct 16, 2:04pm

Fri Oct 16, 1:04pm

Fri Oct 16, 12:04pm

Fri Oct 16, 11:05am

Fri Oct 16, 10:04am

Fri Oct 16, 9:04am

Fri Oct 16, 8:04am

Fri Oct 16, 7:04am

Fri Oct 16, 6:04am

Fri Oct 16, 5:04am

Fri Oct 16, 4:04am

Fri Oct 16, 3:04am

Fri Oct 16, 2:04am

Fri Oct 16, 1:04am

Fri Oct 16, 12:04am

Thu Oct 15, 11:04pm

Thu Oct 15, 10:04pm

Thu Oct 15, 9:05pm

Thu Oct 15, 8:04pm

Meta data:

ID: 4b2d0376-85dd-406f-acd7-34c17351c1c2
Link: https://api.weather.gov/products/4b2d0376-85dd-406f-acd7-34c17351c1c2